Location: Skalnate Pleso
(49.1889°N, 20.2450°E)
Time: 04:31:07
(UTC+01:00)

CZ-4B R/B - Visible Passes

Search period start: 28 February 2020 00:00
Search period end: 09 March 2020 00:00
Orbit: 808 x 882 km, 99.1° (Epoch: 27 February)

Date Brightness Start Highest point End Pass type
(mag) Time Alt. Az. Time Alt. Az. Time Alt. Az.
28 Feb 3.8 05:21:06 10° NNE 05:26:21 60° ESE 05:31:34 10° S visible
29 Feb 4.3 05:07:48 10° NNE 05:12:54 46° E 05:17:59 10° S visible
29 Feb 6.9 18:24:02 10° W 18:24:36 10° W 18:25:09 10° WNW visible
01 Mar 4.8 04:54:33 10° NNE 04:59:26 36° E 05:04:18 10° SSE visible
01 Mar 6.6 18:08:20 10° WSW 18:10:59 14° W 18:13:37 10° WNW visible
02 Mar 5.3 04:41:23 10° NE 04:45:56 28° E 04:50:27 10° SSE visible
02 Mar 6.3 17:53:49 10° SW 17:57:24 18° W 18:00:58 10° NW visible
03 Mar 5.7 04:28:18 10° NE 04:32:25 22° E 04:36:30 10° SE visible
04 Mar 6.0 04:15:23 10° NE 04:18:51 17° E 04:22:18 10° SE visible
05 Mar 6.2 04:02:45 10° ENE 04:05:15 13° E 04:07:46 10° ESE visible
05 Mar 3.3 05:41:18 10° NNE 05:46:38 85° ESE 05:51:58 10° SSW visible
06 Mar 3.6 05:27:56 10° NNE 05:33:13 67° ESE 05:38:31 10° S visible
07 Mar 4.1 05:14:36 10° NNE 05:19:47 52° E 05:24:59 10° S visible
08 Mar 4.6 05:01:20 10° NNE 05:06:19 40° E 05:11:20 10° SSE visible
08 Mar 6.9 18:16:04 10° WSW 18:17:58 12° W 18:19:51 10° WNW visible
